Wetbulb
77.79 78.13 78.58 78.74 79.34 79.89 78.60 79.53 80.17 79.56 80.63 79.05 80.40 79.68 79.07 78.91 79.29 79.70 79.55 79.37 79.69 78.89 79.33 78.99 79.27 80.43 76.64 75.31 74.45 74.49 73.87 73.16 70.85 73.12 74.35 75.66 78.42 78.09 79.87 79.79 78.39 79.55 78.08
77.93 79.18 78.73 78.34 78.96 78.06 79.09 78.57 79.57 79.59 79.82 80.53 80.11 80.74 80.50 80.32 79.97 79.22 78.79 77.32 78.00 77.70 78.32 79.29 78.00 77.11 79.18 78.67 76.11 78.03 76.01 76.68 72.81 73.83 75.18 75.17 77.69 78.96 79.41 79.17 77.00 76.93 78.19
78.48 77.96 77.08 76.83 77.19 77.16 77.55 78.38 78.80 79.74 79.85 77.84 79.73 80.07 79.92 79.74 79.37 79.52 79.44 78.98 78.83 78.62 78.73 79.01 78.51 78.31 78.21 76.98 77.95 76.76 75.58 75.51 75.80 74.61 73.53 74.69 75.44 75.85 75.56 77.59 78.37 78.12 77.32
76.65 76.25 76.31 76.88 76.91 76.85 78.25 78.89 78.95 79.54 79.69 79.34 79.57 79.90 79.77 79.43 79.28 79.94 79.27 79.11 79.13 79.28 79.63 79.82 78.89 78.27 78.05 77.72 77.07 78.43 76.65 75.62 75.50 73.51 73.81 73.83 74.20 75.80 75.83 74.30 73.95 76.91 76.57
74.64 76.27 77.37 78.68 78.66 78.56 78.40 78.63 79.14 79.54 79.40 79.55 79.22 79.82 79.69 79.94 78.26 79.79 79.01 77.17 78.62 78.78 78.97 78.59 77.78 77.79 73.97 74.26 76.19 78.61 78.90 74.90 72.92 72.42 71.78 72.51 72.64 73.20 73.97 75.02 74.34 74.71 74.84
74.31 74.82 76.89 78.98 79.29 79.21 79.04 79.19 79.13 79.43 79.27 79.66 79.18 79.24 78.99 77.53 70.77 69.11 74.66 75.78 78.19 78.53 78.15 79.14 78.55 74.62 73.14 69.75 69.58 69.69 73.73 76.91 75.60 73.10 71.82 71.92 74.47 74.44 75.09 75.21 74.89 73.54 71.04
71.86 75.16 75.94 78.01 78.64 77.84 78.51 78.93 78.71 79.28 79.87 79.55 79.81 79.29 78.83 79.24 68.58 65.95 68.15 77.08 78.05 78.03 74.66 77.34 76.64 75.65 74.36 77.36 70.65 68.22 68.31 67.44 69.84 76.11 74.76 74.43 75.11 76.05 76.52 75.01 74.39 74.27 73.69
73.42 72.25 71.84 75.64 76.89 77.78 77.88 78.08 78.20 78.79 79.26 78.97 79.29 79.63 79.29 78.84 68.67 63.65 65.32 77.69 78.31 78.89 78.47 78.13 78.10 78.61 78.77 77.57 77.74 76.00 75.97 76.22 75.13 74.51 75.89 76.08 76.42 75.62 74.11 73.91 73.79 74.33 74.36
73.12 71.05 69.42 70.69 73.92 75.97 75.11 77.37 77.97 77.04 77.06 76.54 78.61 79.01 79.00 78.48 65.40 62.39 66.58 76.86 75.97 77.22 77.80 78.83 78.40 78.08 70.77 65.34 75.90 75.47 74.90 75.13 72.04 66.00 65.94 65.67 64.77 63.82 65.69 70.59 70.34 71.75 69.82
72.31 74.20 73.62 70.80 71.57 72.88 72.64 76.36 74.36 75.64 74.39 74.73 75.09 76.65 74.23 78.69 66.46 60.30 65.52 76.24 75.67 74.79 76.51 77.21 66.43 73.35 64.88 63.58 75.62 76.41 73.58 73.73 74.40 74.23 73.92 71.68 68.52 72.41 64.59 70.85 73.15 70.76 72.02
72.61 75.19 75.98 76.03 75.46 75.03 74.04 74.93 74.64 74.15 76.50 76.51 76.54 75.76 74.49 75.69 76.42 60.52 60.48 76.13 74.78 74.17 74.65 75.18 73.25 59.38 59.07 60.34 60.48 74.21 72.35 70.34 71.45 72.56 71.84 72.55 73.72 73.93 73.83 74.05 73.80 71.45 69.56
72.51 73.96 74.50 75.59 75.34 73.76 71.82 74.25 73.81 74.31 74.32 74.54 72.24 71.55 71.75 71.84 62.34 60.89 60.00 61.84 66.66 74.17 72.87 72.45 72.03 57.83 57.99 57.46 60.28 59.26 57.83 60.25 68.15 69.33 69.06 70.77 71.70 71.12 71.92 72.33 72.99 72.55 72.64
70.19 70.87 68.34 68.27 68.34 72.67 73.71 73.82 71.71 72.31 71.58 66.49 67.96 66.42 66.49 69.13 66.78 57.83 57.65 58.35 61.97 69.49 71.70 62.89 57.46 54.56 54.93 58.20 55.63 55.79 57.42 65.33 67.76 69.53 69.91 71.81 70.99 71.18 72.47 72.43 74.11 73.30 73.29
63.90 65.41 66.62 67.26 66.16 66.40 67.37 68.61 67.19 67.53 67.24 67.04 66.06 64.04 64.08 66.62 67.87 65.69 64.40 63.22 59.22 64.00 63.98 68.13 64.94 61.60 58.25 61.36 63.80 62.07 63.81 67.67 69.29 70.27 70.44 70.38 70.70 70.11 69.62 70.30 69.62 70.01 70.03
64.19 65.35 64.55 65.03 67.15 65.52 62.72 63.74 65.49 58.45 57.08 65.01 67.35 67.96 65.12 65.73 66.56 60.55 62.34 66.28 66.51 63.34 65.19 68.16 65.92 64.50 65.11 65.62 66.01 67.40 67.40 68.48 67.51 69.16 69.25 68.86 68.43 68.09 68.14 68.96 68.51 68.51 68.02
66.23 65.95 66.35 67.66 68.28 66.64 65.42 62.98 50.71 49.91 47.19 46.03 46.59 58.65 58.53 51.46 49.13 48.40 49.13 50.03 51.48 53.11 64.81 66.14 67.80 65.50 64.72 64.46 64.23 64.56 65.81 65.04 67.01 69.06 68.20 69.12 66.78 66.58 66.58 66.23 67.02 66.41 65.59
56.70 61.86 61.22 62.61 62.38 62.42 64.48 64.19 60.96 55.96 47.96 46.19 44.56 44.54 46.57 48.04 45.68 44.41 46.04 46.77 49.13 53.84 64.76 66.45 64.60 65.98 65.71 64.53 63.44 63.25 63.03 63.30 63.73 63.31 64.29 64.64 64.13 64.03 63.39 64.46 65.42 64.75 65.00
54.77 52.31 59.94 62.43 62.09 62.17 61.75 61.78 62.46 61.65 62.16 61.99 49.82 49.63 43.15 44.05 45.14 45.68 46.41 50.51 61.23 58.83 61.39 63.19 62.33 61.62 61.96 63.30 63.05 62.39 62.29 62.72 63.03 62.21 62.33 64.32 62.52 62.27 62.14 61.84 62.14 62.94 62.57
55.94 57.39 58.47 58.17 56.98 56.39 57.71 58.62 58.61 58.51 58.29 60.25 63.33 55.61 53.64 46.32 45.32 46.22 45.68 62.98 65.24 63.94 64.56 64.03 63.68 62.31 62.84 62.80 62.83 62.09 63.48 62.78 61.12 62.26 61.92 60.79 61.23 59.21 59.61 59.96 59.71 52.72 54.71
53.66 53.98 55.66 58.81 59.38 60.33 60.59 60.21 60.21 59.13 58.41 57.37 55.72 55.92 58.86 57.58 61.49 62.17 60.47 62.70 63.27 63.53 63.62 63.77 64.78 64.44 63.41 62.66 62.17 62.89 61.95 60.50 59.18 58.80 59.26 58.58 58.37 58.36 58.33 58.53 58.43 57.57 57.78
54.69 55.65 55.34 55.47 55.20 55.91 55.72 55.68 56.48 57.52 58.24 59.41 59.85 56.28 45.79 58.19 60.80 61.60 61.92 64.45 64.68 64.28 63.63 63.49 64.06 63.71 64.01 63.77 63.54 62.12 61.02 60.44 59.83 58.98 58.20 58.23 58.10 57.39 58.85 58.24 57.72 57.54 57.00
54.05 53.92 54.13 53.80 55.32 55.20 56.00 56.35 56.27 56.27 56.24 55.96 56.25 56.40 47.37 57.26 58.20 59.47 60.31 60.50 61.69 65.01 63.86 65.35 63.76 63.29 63.47 63.42 64.02 61.69 60.45 59.45 59.19 58.81 58.44 57.89 57.49 57.25 57.31 57.12 56.79 56.79 56.38
53.66 54.29 54.49 54.06 54.50 53.01 54.40 55.13 54.99 55.04 55.15 55.37 55.87 55.90 56.69 56.88 57.20 57.36 57.62 58.14 59.20 60.25 61.66 62.72 62.71 62.32 62.97 63.15 62.23 61.93 60.29 60.04 60.35 59.99 58.51 57.96 57.45 57.23 57.08 56.81 56.65 56.29 56.18
54.99 54.65 54.26 54.20 53.70 54.37 54.04 54.66 54.80 51.66 54.44 55.00 55.20 55.37 55.67 55.91 55.83 56.69 57.30 58.40 58.95 59.06 59.34 59.37 59.99 60.40 61.65 62.27 63.50 63.31 60.12 60.42 61.36 60.79 60.22 58.94 57.94 55.32 57.02 56.60 56.76 56.73 56.60
55.70 55.52 55.73 55.57 55.20 55.06 55.18 55.12 55.09 55.08 55.13 55.09 55.00 55.21 55.42 55.96 55.92 56.10 56.36 56.66 57.07 57.47 58.36 58.90 59.00 59.46 59.77 60.67 61.15 61.61 51.94 43.96 53.40 46.24 58.25 59.97 57.55 58.80 57.80 56.95 56.77 56.31 56.50
55.51 55.61 55.48 55.59 55.60 55.72 55.44 55.28 55.20 55.26 55.06 55.32 55.49 55.61 55.89 55.78 56.08 56.24 56.54 56.83 56.71 56.75 57.07 57.00 57.17 57.77 58.32 58.49 58.50 45.48 41.76 40.13 51.68 40.45 57.25 58.29 54.96 55.16 55.99 55.17 56.66 55.05 55.60
MSLP
1008.43 1009.11 1009.86 1010.46 1010.98 1011.56 1011.77 1011.96 1012.14 1012.49 1012.54 1012.95 1013.29 1013.72 1014.20 1014.51 1014.75 1014.98 1015.08 1015.07 1015.08 1015.51 1015.62 1015.74 1015.69 1015.80 1015.92 1015.33 1014.77 1014.37 1014.21 1014.21 1013.94 1013.59 1013.86 1013.92 1013.84 1013.63 1013.16 1012.79 1012.49 1012.08 1011.36
1007.18 1008.39 1008.84 1009.61 1010.21 1010.44 1010.91 1011.22 1011.58 1011.89 1012.25 1012.32 1012.85 1013.11 1013.45 1013.69 1014.05 1014.34 1014.49 1014.44 1014.58 1014.80 1014.80 1014.98 1015.33 1015.41 1015.47 1015.50 1015.11 1014.86 1014.71 1014.88 1014.78 1014.27 1014.27 1014.09 1013.56 1013.22 1012.81 1012.56 1012.17 1011.32 1010.98
1006.21 1007.27 1008.07 1008.43 1008.94 1009.43 1009.76 1010.40 1010.75 1011.11 1011.46 1011.69 1012.04 1012.42 1012.85 1013.16 1013.37 1013.55 1013.78 1013.76 1013.88 1013.86 1014.08 1014.33 1014.74 1015.05 1015.14 1014.74 1014.87 1014.89 1014.45 1014.43 1014.27 1014.30 1014.08 1013.83 1013.22 1012.97 1012.34 1011.88 1011.41 1010.79 1010.55
1005.27 1006.28 1007.10 1007.45 1007.70 1008.16 1008.88 1009.46 1010.03 1010.34 1010.72 1010.99 1011.16 1011.54 1012.07 1012.55 1012.63 1012.53 1012.89 1013.13 1013.35 1013.21 1013.33 1013.50 1013.84 1014.39 1014.74 1014.90 1015.01 1014.98 1014.94 1014.78 1014.50 1014.31 1013.65 1012.76 1012.32 1011.78 1011.40 1010.92 1010.44 1010.11 1009.89
1004.83 1005.21 1005.96 1006.69 1007.20 1007.52 1007.81 1008.33 1008.85 1009.51 1009.85 1010.31 1010.61 1010.70 1011.10 1011.40 1011.63 1011.87 1012.08 1012.32 1012.65 1012.89 1013.03 1012.93 1013.02 1013.11 1013.33 1013.94 1013.80 1013.78 1014.18 1014.35 1013.99 1013.54 1013.13 1012.64 1011.92 1011.32 1011.35 1011.17 1010.73 1010.32 1009.66
1005.27 1005.00 1005.26 1006.01 1006.67 1007.07 1007.30 1007.52 1008.10 1008.54 1009.03 1009.42 1009.79 1009.99 1010.30 1010.34 1010.31 1010.90 1011.30 1011.51 1011.39 1011.92 1012.22 1012.26 1012.21 1012.33 1012.79 1013.09 1013.22 1013.46 1013.85 1014.19 1014.32 1014.03 1013.46 1012.70 1012.26 1012.21 1011.79 1011.90 1011.54 1010.90 1010.01
1005.96 1005.62 1005.38 1005.40 1006.15 1006.94 1007.19 1007.23 1007.62 1007.79 1008.22 1008.67 1008.84 1009.26 1009.57 1009.87 1009.92 1010.22 1010.61 1010.89 1010.78 1010.70 1011.13 1011.51 1011.02 1011.24 1011.38 1011.61 1012.15 1012.46 1013.15 1013.46 1013.39 1013.60 1013.54 1013.08 1012.58 1012.31 1012.23 1012.03 1011.83 1011.47 1010.85
1005.97 1006.04 1006.04 1005.72 1006.18 1006.92 1007.21 1007.09 1007.21 1007.26 1007.30 1007.88 1008.13 1008.42 1008.79 1008.98 1009.36 1009.84 1010.33 1010.52 1010.24 1010.19 1010.27 1010.40 1010.67 1011.00 1011.09 1011.28 1011.53 1011.84 1012.26 1012.01 1012.52 1012.62 1012.73 1012.60 1012.45 1012.43 1012.61 1012.22 1011.72 1011.12 1010.77
1005.90 1006.13 1006.32 1006.00 1005.66 1006.83 1006.83 1007.00 1007.01 1006.97 1006.89 1007.22 1007.38 1007.76 1007.87 1008.13 1008.80 1009.26 1009.78 1009.86 1009.58 1009.62 1009.88 1010.12 1010.22 1010.54 1011.03 1011.55 1011.70 1011.78 1011.90 1011.80 1011.43 1011.62 1011.89 1012.14 1012.20 1012.18 1012.34 1012.20 1011.34 1010.83 1010.17
1005.72 1005.32 1005.38 1005.81 1005.70 1006.91 1006.36 1006.44 1006.88 1007.22 1007.46 1007.44 1007.16 1007.21 1007.40 1007.70 1007.86 1008.45 1009.05 1008.90 1008.70 1008.74 1008.87 1009.14 1009.71 1009.88 1010.35 1011.19 1011.49 1011.71 1011.76 1011.46 1011.39 1011.39 1011.83 1011.88 1011.69 1010.98 1011.18 1011.66 1011.38 1011.15 1010.74
1005.35 1005.02 1005.22 1005.47 1005.89 1006.13 1006.06 1006.39 1006.52 1006.93 1007.22 1007.28 1007.48 1007.48 1007.62 1007.31 1007.66 1008.34 1008.30 1008.12 1008.44 1008.47 1008.91 1009.51 1010.16 1010.39 1010.82 1011.20 1011.57 1011.56 1011.74 1011.85 1011.41 1011.75 1011.50 1010.82 1010.50 1010.74 1010.75 1010.71 1011.19 1011.43 1011.04
1005.12 1004.75 1004.72 1004.98 1005.38 1005.65 1005.87 1005.71 1006.18 1006.83 1006.46 1006.97 1007.54 1007.96 1008.00 1008.49 1007.71 1008.77 1008.55 1008.78 1008.50 1008.54 1008.87 1009.32 1010.33 1010.77 1011.17 1011.46 1011.71 1011.88 1012.07 1012.20 1011.97 1011.56 1010.92 1010.51 1010.50 1011.08 1010.82 1010.93 1011.01 1010.82 1010.85
1005.22 1004.98 1005.36 1005.38 1005.43 1005.38 1005.55 1005.75 1006.32 1006.67 1007.05 1007.87 1008.12 1009.02 1008.79 1007.76 1008.84 1008.73 1008.11 1009.78 1008.50 1009.41 1009.32 1010.28 1010.65 1011.00 1011.43 1011.54 1011.96 1012.15 1012.17 1012.26 1011.70 1010.79 1010.54 1010.00 1010.32 1010.70 1010.74 1010.49 1010.07 1010.23 1010.28
1005.68 1005.33 1005.58 1005.64 1005.82 1005.92 1006.08 1006.55 1007.01 1007.52 1007.94 1008.47 1008.96 1008.82 1008.73 1008.35 1009.73 1010.01 1008.16 1008.56 1009.17 1009.49 1010.56 1010.45 1010.64 1011.01 1011.23 1011.29 1011.57 1011.72 1012.01 1011.65 1011.15 1010.43 1010.15 1010.14 1010.42 1010.33 1010.13 1010.22 1009.86 1009.65 1009.57
1005.80 1005.86 1005.89 1005.76 1005.72 1006.24 1007.11 1007.78 1007.79 1008.57 1009.65 1009.50 1009.50 1009.11 1009.46 1009.47 1009.62 1008.74 1008.74 1009.48 1009.78 1010.07 1009.94 1010.01 1010.56 1010.33 1011.20 1011.16 1010.93 1011.25 1011.38 1011.19 1011.19 1010.70 1010.29 1009.89 1009.94 1009.93 1009.77 1009.82 1009.67 1009.27 1009.03
1005.74 1005.53 1005.71 1005.58 1005.99 1006.26 1007.47 1008.51 1009.22 1009.54 1009.44 1009.63 1009.42 1009.09 1009.56 1009.49 1009.53 1010.18 1009.53 1009.39 1009.78 1009.80 1010.20 1009.98 1009.93 1010.26 1010.70 1010.74 1010.77 1011.16 1011.26 1011.24 1010.88 1010.50 1010.47 1010.06 1009.74 1009.66 1009.54 1009.59 1009.58 1009.48 1009.37
1007.01 1006.84 1006.68 1006.34 1007.28 1007.47 1007.65 1008.09 1008.77 1009.85 1009.70 1009.80 1009.84 1009.47 1009.67 1010.20 1010.19 1010.08 1009.89 1009.99 1009.91 1010.31 1010.43 1010.08 1009.92 1009.69 1010.18 1010.54 1010.75 1010.76 1010.84 1010.85 1011.04 1011.21 1011.10 1011.07 1010.84 1010.72 1010.56 1010.24 1010.17 1010.06 1009.70
1009.07 1008.75 1006.48 1006.22 1007.32 1007.33 1007.65 1007.91 1008.50 1008.94 1009.37 1010.27 1010.70 1010.60 1010.55 1010.01 1010.03 1010.44 1010.16 1010.36 1010.22 1010.35 1010.05 1009.98 1009.63 1009.69 1009.94 1010.25 1010.39 1010.67 1010.64 1010.80 1011.26 1011.20 1011.21 1010.81 1010.50 1010.32 1010.11 1010.04 1009.90 1009.75 1009.86
1009.80 1009.22 1008.00 1007.34 1007.39 1007.34 1007.42 1007.82 1008.25 1009.26 1009.18 1009.19 1009.31 1010.12 1010.19 1010.13 1010.38 1010.15 1010.49 1010.03 1009.62 1009.65 1009.51 1009.75 1009.90 1009.65 1009.70 1010.12 1010.45 1010.57 1010.59 1010.89 1010.83 1011.01 1011.04 1011.13 1010.76 1010.53 1009.93 1009.92 1009.74 1010.07 1010.14
1010.07 1008.80 1007.75 1006.82 1006.98 1006.95 1007.22 1007.41 1007.78 1008.58 1008.85 1009.54 1009.77 1009.69 1009.64 1010.02 1010.01 1009.95 1010.02 1009.67 1009.26 1008.98 1008.77 1009.03 1009.20 1009.12 1009.45 1010.08 1010.49 1010.40 1010.55 1010.55 1010.82 1010.97 1010.56 1010.42 1010.53 1010.27 1009.76 1009.83 1009.59 1009.61 1009.59
1009.55 1008.86 1008.54 1007.77 1007.75 1007.73 1007.85 1008.03 1008.15 1007.92 1007.77 1007.88 1008.18 1009.46 1010.00 1009.64 1008.60 1008.70 1008.72 1008.78 1008.81 1008.33 1008.12 1008.37 1008.03 1008.55 1008.81 1009.14 1009.44 1009.55 1009.77 1009.70 1009.73 1009.93 1010.02 1010.18 1010.13 1009.90 1009.67 1009.66 1009.65 1009.49 1009.46
1009.20 1009.12 1008.93 1008.79 1008.58 1008.41 1008.17 1008.42 1008.37 1008.20 1008.22 1008.31 1008.47 1009.47 1009.49 1009.10 1008.68 1008.64 1008.71 1008.62 1008.38 1008.28 1008.22 1008.12 1008.01 1007.73 1008.01 1008.05 1008.33 1008.89 1008.78 1009.10 1009.28 1009.72 1009.72 1009.68 1009.95 1009.68 1009.76 1009.55 1009.29 1009.52 1009.54
1009.55 1009.16 1009.14 1009.08 1008.58 1008.68 1008.64 1008.51 1008.65 1008.77 1008.68 1008.66 1008.92 1009.10 1008.92 1008.78 1008.64 1008.57 1008.64 1008.69 1008.48 1008.44 1008.30 1008.20 1007.85 1007.57 1007.42 1007.35 1007.50 1008.13 1008.20 1008.01 1008.27 1008.90 1009.26 1009.50 1009.62 1009.52 1009.37 1009.52 1009.30 1009.20 1009.18
1009.73 1009.46 1009.28 1009.21 1009.70 1009.45 1009.53 1008.85 1008.68 1008.94 1008.90 1008.57 1008.59 1008.82 1008.79 1008.72 1008.69 1008.56 1008.65 1008.47 1008.53 1008.60 1008.58 1008.50 1008.31 1007.94 1007.71 1007.60 1007.27 1007.60 1007.90 1008.82 1008.11 1007.70 1008.49 1008.95 1008.98 1009.39 1009.45 1009.45 1009.25 1009.10 1009.31
1009.84 1009.96 1009.87 1009.78 1009.59 1009.71 1009.39 1009.20 1009.06 1008.91 1008.82 1008.91 1008.85 1008.87 1008.83 1008.84 1008.79 1008.55 1008.59 1008.57 1008.59 1008.54 1008.38 1008.31 1008.17 1008.00 1007.96 1007.92 1007.89 1007.82 1008.37 1008.71 1009.03 1008.98 1008.90 1008.86 1008.87 1009.06 1009.01 1008.97 1008.98 1009.16 1009.07
1009.68 1009.88 1009.83 1009.76 1009.63 1009.53 1009.20 1009.12 1009.05 1009.03 1008.88 1008.78 1008.94 1008.88 1008.84 1008.69 1008.60 1008.45 1008.34 1008.18 1008.23 1008.18 1008.28 1008.39 1008.18 1008.10 1008.13 1007.99 1007.86 1008.63 1008.94 1008.96 1008.66 1008.80 1008.93 1008.89 1009.10 1009.56 1009.37 1009.27 1009.02 1009.02 1009.15
Wind_Speed
20 18 18 18 18 17 15 14 13 13 11 12 11 13 13 13 13 12 12 11 9 12 11 10 9 8 9 10 10 9 8 8 10 9 10 10 11 11 10 10 10 10 11
18 17 18 18 18 18 17 16 16 14 14 13 13 12 13 14 14 13 13 14 14 13 12 10 10 10 9 11 10 9 8 10 10 11 9 10 9 9 9 11 11 11 11
18 19 20 21 20 21 19 18 17 16 16 18 15 14 14 14 15 15 14 14 13 12 13 12 12 12 10 11 7 7 7 7 7 7 10 9 9 10 12 11 10 11 10
17 20 18 20 21 21 18 17 17 17 17 16 15 16 15 15 16 14 15 14 13 13 13 11 11 10 11 11 9 7 9 9 9 9 11 10 9 9 9 10 9 5 8
9 17 18 17 17 17 17 17 18 17 17 16 16 16 16 16 14 15 14 12 15 14 13 12 12 12 13 12 10 7 6 9 10 10 11 11 11 10 11 11 12 11 8
9 8 13 14 15 15 16 16 16 16 17 17 17 17 16 15 17 17 14 13 15 16 14 14 13 9 12 13 14 15 9 7 9 10 12 12 13 12 11 10 10 11 12
5 11 6 11 13 16 16 16 15 17 16 17 17 17 17 17 13 13 15 13 13 9 7 10 12 13 12 13 17 13 10 13 14 9 11 12 13 12 10 10 10 9 9
15 10 9 7 11 13 15 16 17 16 17 16 17 17 16 16 14 13 14 13 13 14 13 12 11 12 12 9 10 7 14 10 10 10 10 10 10 10 10 11 12 12 11
16 12 12 7 6 13 15 14 14 14 13 14 16 17 17 17 12 14 14 15 16 15 14 13 13 12 7 2 10 8 8 10 12 11 7 8 12 12 9 8 11 9 10
17 13 13 11 11 17 9 11 9 10 11 12 10 13 17 16 13 17 17 15 16 13 14 15 6 11 11 9 10 9 11 12 11 8 6 9 10 9 12 7 8 8 7
14 15 14 15 16 15 11 10 10 11 12 13 12 10 9 11 12 13 15 13 10 9 6 4 3 10 8 7 3 7 6 8 5 5 10 9 6 6 4 3 4 5 4
11 11 11 12 11 9 12 10 11 11 11 9 5 6 4 6 3 10 9 8 5 7 6 4 4 7 7 5 3 4 8 5 5 8 9 6 3 6 7 6 6 6 3
9 1 5 8 4 1 7 8 6 5 4 5 4 1 3 4 2 2 6 5 7 3 2 8 10 8 4 3 6 7 4 4 7 9 7 6 3 6 4 8 5 1 4
3 7 5 7 6 8 6 5 5 4 3 1 1 3 5 0 4 4 3 5 5 1 3 4 3 5 3 1 3 4 5 6 7 7 5 4 4 6 4 3 5 4 5
7 5 6 5 7 8 8 6 4 7 2 2 4 3 4 4 4 2 5 4 3 5 4 4 3 3 5 5 3 4 4 3 6 6 7 5 4 3 3 2 4 5 5
6 6 3 5 5 7 8 9 13 8 8 7 5 4 3 7 5 3 9 10 9 4 0 3 5 5 5 3 2 4 5 5 5 3 5 3 3 3 2 5 4 5 4
14 4 7 10 8 5 7 6 8 4 10 12 12 14 13 8 7 7 8 9 8 5 2 3 2 5 4 5 4 3 3 1 4 4 4 3 3 3 3 3 3 4 5
11 23 3 11 6 6 6 5 5 3 6 5 8 6 6 9 10 8 8 2 2 1 1 2 3 3 3 2 3 1 1 4 4 4 4 3 3 3 2 3 4 2 4
5 8 4 8 6 7 7 8 8 3 6 4 6 4 5 9 8 6 3 3 2 4 4 4 2 1 2 0 2 1 1 1 2 1 2 3 2 4 3 3 3 1 1
4 10 9 8 7 8 7 6 8 8 6 5 4 4 3 6 5 7 5 6 4 4 4 4 6 5 5 5 5 6 5 4 5 6 5 3 4 4 3 2 3 3 4
2 4 8 9 9 8 7 6 5 4 5 5 7 5 1 5 3 3 4 3 4 4 4 5 3 6 6 6 5 4 4 5 5 5 5 6 3 5 1 3 4 4 4
7 7 8 7 6 7 7 8 7 6 6 5 4 5 7 5 4 3 2 4 6 3 5 5 5 5 6 7 7 7 5 6 6 4 5 3 4 4 4 4 4 3 4
7 8 8 8 6 6 7 6 7 6 5 5 4 5 4 5 4 4 4 5 5 5 6 7 7 8 8 7 5 5 7 7 7 7 7 6 6 6 5 5 5 5 3
6 7 7 7 6 7 6 6 5 2 4 5 4 4 4 4 5 5 4 5 4 5 6 6 7 11 10 9 8 4 2 10 9 7 12 8 7 5 6 8 7 7 3
5 4 4 4 5 5 4 5 5 6 6 5 5 5 6 6 6 6 5 4 5 6 7 7 7 8 9 9 9 15 4 6 4 7 5 4 5 9 7 6 8 7 9
5 5 5 5 5 5 6 6 6 6 5 6 6 7 6 6 7 7 7 7 6 7 9 8 9 11 12 11 12 9 6 4 3 2 6 5 3 6 8 9 12 7 8
Wind_Direction
205 209 206 204 204 204 221 214 222 222 207 228 197 196 206 212 217 222 234 254 248 221 234 253 262 245 259 276 277 279 272 262 283 309 336 321 330 306 302 304 294 301 279
196 211 205 207 209 207 210 216 210 218 223 205 218 218 211 214 216 219 222 235 223 243 247 239 250 256 233 245 259 269 301 316 297 290 295 284 282 290 288 299 283 299 284
192 202 218 211 209 216 209 212 211 210 217 221 210 219 219 223 217 219 223 229 238 239 225 231 236 244 253 275 305 286 273 263 296 311 308 294 291 294 281 269 271 280 280
202 204 212 221 216 213 215 205 214 212 213 219 223 213 215 223 227 226 222 232 239 237 239 245 254 236 244 250 247 254 253 263 272 267 265 272 267 266 259 267 270 285 261
221 208 209 215 227 221 213 212 205 211 215 218 221 225 214 220 226 225 227 222 223 231 256 248 247 244 219 233 257 238 281 274 281 289 296 292 294 306 319 315 305 289 289
308 233 208 211 218 230 224 213 214 210 213 214 220 223 225 230 220 213 219 230 222 215 222 242 249 232 219 209 210 229 251 249 264 280 288 288 294 302 311 311 314 307 300
288 293 255 210 212 228 231 226 217 216 216 217 220 222 227 230 232 207 213 233 251 234 205 265 226 250 233 228 215 204 211 221 224 253 272 278 292 297 307 302 299 291 287
267 261 291 284 234 235 235 228 224 222 216 219 221 223 228 229 224 201 204 226 232 239 253 260 255 266 272 280 284 253 221 240 238 239 245 269 293 320 308 299 294 282 285
252 228 245 258 253 249 238 241 239 232 230 221 225 226 222 226 226 200 190 229 235 237 238 238 244 248 275 253 272 266 276 277 273 230 235 266 262 265 270 298 292 312 302
275 232 227 220 222 243 240 240 238 246 250 255 244 229 229 237 207 196 201 228 234 235 229 231 209 242 182 176 243 242 243 251 265 271 266 264 249 262 234 243 292 294 304
274 256 222 213 212 218 219 224 230 231 238 240 252 262 262 235 244 218 202 220 240 245 251 271 124 111 127 151 222 245 276 337 277 265 266 264 279 293 292 273 316 307 297
280 246 244 220 216 216 221 233 234 226 232 234 270 294 19 328 128 224 240 272 128 191 218 226 156 156 169 177 196 309 310 307 275 271 271 272 314 305 305 342 306 288 257
258 81 88 81 54 182 210 203 193 174 170 87 93 50 304 97 321 297 94 329 85 262 28 85 104 132 130 208 235 258 273 250 252 252 252 287 305 282 296 268 245 250 278
100 119 123 121 89 80 73 87 77 64 71 119 172 166 142 77 310 199 121 77 125 110 207 210 141 135 115 59 152 199 228 241 269 278 277 297 277 267 287 301 296 311 298
178 191 167 165 133 95 59 30 58 75 25 298 245 202 176 200 196 188 143 177 186 204 218 162 182 146 223 192 185 231 232 260 254 246 234 222 229 252 273 297 318 319 308
218 124 98 109 77 101 120 107 69 78 68 58 38 60 104 66 71 95 124 113 116 116 264 258 238 172 191 174 159 231 215 239 265 254 276 268 270 284 344 324 326 321 333
16 108 113 99 99 97 119 114 106 73 55 57 51 48 47 83 76 95 104 103 107 134 206 276 232 180 186 192 202 216 203 198 33 315 338 330 313 312 325 296 261 300 320
16 317 47 95 113 105 104 93 85 49 105 85 55 55 87 94 89 60 37 22 106 115 179 265 107 65 70 177 148 179 154 130 211 258 232 241 282 289 249 296 289 327 338
340 274 176 116 112 104 89 84 84 89 76 56 101 102 73 51 37 67 354 289 251 214 203 168 179 137 128 292 22 357 319 55 27 338 220 266 289 280 261 278 299 237 277
294 337 11 54 78 90 111 119 121 119 107 104 96 37 44 174 191 191 210 227 231 250 191 221 177 194 164 184 198 207 190 187 176 220 230 218 237 258 280 278 295 318 300
41 42 61 43 41 54 64 58 53 42 45 52 103 87 302 320 357 6 329 187 242 290 223 262 188 179 184 188 200 206 229 257 204 227 203 209 220 273 215 277 296 314 311
67 58 64 62 70 44 61 64 51 47 46 33 29 141 222 264 345 341 328 326 318 308 295 304 287 265 210 203 182 197 222 226 234 228 249 234 219 231 262 254 255 280 294
38 45 63 44 52 63 38 52 60 44 31 55 40 24 2 11 343 335 340 317 308 309 321 316 294 274 280 277 178 207 233 234 185 205 225 234 231 246 243 266 280 279 325
41 33 41 60 41 12 22 18 33 95 347 18 8 8 2 7 342 347 310 315 328 314 312 301 304 313 320 309 306 227 40 1 307 218 206 234 247 200 236 263 263 281 269
68 8 35 32 33 21 10 15 10 359 358 353 343 350 340 341 322 327 337 318 324 315 299 296 291 296 291 329 313 309 107 140 258 338 341 254 285 292 289 279 279 292 289
347 27 355 350 356 352 352 349 349 341 338 344 342 327 316 311 316 319 327 325 318 328 332 301 295 295 297 288 276 103 161 154 282 321 294 257 217 246 255 258 263 251 257